Location: Shepherdstown, WV
(39.4326°N, 77.8042°W)
Time: 06:04:21
(UTC-04:00)

SR - Pass Details

Date: 03 August 2021
Orbit: 581 x 874 km, 66.7° (Epoch: 24 September)

Event Time Altitude Azimuth Distance (km) Brightness Sun altitude
Rises 04:44:37 0° 151° (SSE) 3,445 ? -15.4°
Reaches altitude 10° 04:49:23 10° 116° (ESE) 2,488 ? -14.7°
Maximum altitude 04:50:44 11° 103° (ESE) 2,420 ? -14.5°
Drops below altitude 10° 04:52:04 10° 89° (E) 2,467 ? -14.3°
Sets 04:56:41 0° 54° (NE) 3,347 ? -13.6°
